Avian Flight Center Webcam (1 minute updates)

Looking East from Avian at mid-field (Taxiway E) towards Runway 20-2 (Click for full size image). Image will update automatically every minute.

Bremerton Airport Live Webcam

KPWT 281155Z AUTO 18010KT 10SM FEW015 08/07 A3012 RMK AO1 70002 10100 20080 52010

Time-lapse movie of yesterday's webcam images

If you are unable to view the movie, download and install the DivX Codec here